User: anonymous
Location: NJAA Observatory
(40.6819°N, 74.8979°W)
Time: 10:01:14
(UTC-04:00)
Language:

Cosmos 1633 - Orbit

View from above orbital plane
View from above orbital plane
View from above satellite
View from above satellite

Ground track
Ground track

The orbit data is extracted from the following two-line orbital elements,

1 15592U 85020A   14244.71885752  .00004338  00000-0  20388-3 0  5319
2 15592 082.5392 255.6305 0018546 159.7783 252.1965 15.19185211608900
Epoch (UTC): 01 September 2014 17:15:09
Eccentricity: 0.0018546
inclination: 82.5392°
perigee height: 495 km
apogee height: 521 km
right ascension of ascending node: 255.6305°
argument of perigee: 159.7783°
revolutions per day: 15.19185211
mean anomaly at epoch: 252.1965°
orbit number at epoch: 60890

The dashed part of the orbit path shows where the satellite is in the earth's shadow,  

DLR